Location: Hackbridge
(51.3833°N, 0.1500°W)
Time: 06:39:32
(UTC+00:00)

STARLINK-52 - Pass Details

Date: 13 October 2019
Orbit: 443 x 445 km, 53.0° (Epoch: 12 November)

Event Time Altitude Azimuth Distance (km) Brightness Sun altitude
Rises 18:58:25 0° 272° (W) 2,437 8.6 -17.3°
Reaches altitude 10° 19:00:34 10° 275° (W) 1,567 7.2 -17.6°
Maximum altitude 19:04:04 65° 358° (N) 494 3.3 -18.1°
Enters shadow 19:04:49 48° 56° (NE) 588 3.4 -18.3°
